GW6815 Weather Reports


time (UTC)temp
F
wind
direction
speed
knots
gust
knots
rain 1hr
in
rain 24hr
in
rain mn
in
humidity
%
barometer
mb
20260506024535 67 322 1.7 2.6 0.00 0.00 0.00 72 1006.9
20260506024032 67 29 1.7 1.7 0.00 0.00 0.00 71 1006.8
20260506023528 68 54 2.6 3.5 0.00 0.00 0.00 71 1006.5
20260506023026 68 15 1.7 1.7 0.00 0.00 0.00 71 1006.4
20260506022523 68 0 2.6 3.5 0.00 0.00 0.00 70 1006.0
20260506022020 69 31 0.9 1.7 0.00 0.00 0.00 70 1005.9
20260506021518 69 16 0.9 1.7 0.00 0.00 0.00 70 1006.1
20260506021015 69 38 3.5 5.2 0.00 0.00 0.00 70 1005.6
20260506020512 69 324 0.9 0.9 0.00 0.00 0.00 70 1005.6
20260506020010 70 305 0.0 0.9 0.00 0.00 0.00 70 1005.7
20260506015507 70 12 0.9 1.7 0.00 0.00 0.00 69 1005.6
20260506015003 70 20 0.0 0.0 0.00 0.00 0.00 69 1005.4
20260506014501 70 328 0.9 0.9 0.00 0.00 0.00 69 1005.3
20260506013957 70 329 2.6 3.5 0.00 0.00 0.00 68 1005.0
20260506013455 71 52 1.7 1.7 0.00 0.00 0.00 68 1005.2
20260506012951 71 65 1.7 2.6 0.00 0.00 0.00 67 1005.1
20260506012447 72 351 1.7 3.5 0.00 0.00 0.00 66 1005.1
20260506011944 73 4 0.0 0.0 0.00 0.00 0.00 67 1004.9
20260506011442 73 324 0.0 0.0 0.00 0.00 0.00 67 1004.7
20260506010938 73 27 0.0 0.9 0.00 0.00 0.00 66 1004.6
20260506010438 73 308 0.0 0.9 0.00 0.00 0.00 65 1004.6
20260506005933 73 10 0.0 0.0 0.00 0.00 0.00 65 1004.9
20260506005432 73 331 1.7 1.7 0.00 0.00 0.00 65 1005.0
20260506004926 73 342 1.7 2.6 0.00 0.00 0.00 64 1003.8
20260506004425 74 334 0.0 0.9 0.00 0.00 0.00 64 1004.2
20260506003920 74 41 2.6 5.2 0.00 0.00 0.00 63 1004.5
20260506003417 74 0 1.7 2.6 0.00 0.00 0.00 63 1004.2
20260506002913 74 81 3.5 6.1 0.00 0.00 0.00 63 1004.1
20260506002409 75 28 0.9 0.9 0.00 0.00 0.00 63 1003.9
20260506001905 75 350 1.7 1.7 0.00 0.00 0.00 62 1003.7
20260506001402 75 35 2.6 7.0 0.00 0.00 0.00 62 1003.9
20260506000859 75 55 2.6 5.2 0.00 0.00 0.00 61 1003.4
20260506000357 76 338 1.7 2.6 0.00 0.00 0.00 61 1003.8
20260505235854 76 334 2.6 5.2 0.00 0.00 0.00 61 1003.7
20260505235351 77 285 2.6 2.6 0.00 0.00 0.00 60 1003.7
20260505234848 77 24 1.7 2.6 0.00 0.00 0.00 59 1003.6
20260505234346 78 14 1.7 2.6 0.00 0.00 0.00 58 1003.4
20260505233842 78 329 1.7 2.6 0.00 0.00 0.00 59 1003.6
20260505233340 79 340 3.5 3.5 0.00 0.00 0.00 57 1003.5
20260505232837 80 55 1.7 5.2 0.00 0.00 0.00 56 1003.4
20260505232335 80 18 0.9 0.9 0.00 0.00 0.00 57 1003.2
20260505231832 81 54 2.6 5.2 0.00 0.00 0.00 56 1003.5
20260505231329 81 141 2.6 5.2 0.00 0.00 0.00 55 1003.6
20260505230827 82 359 1.7 2.6 0.00 0.00 0.00 55 1003.1
20260505230324 82 8 1.7 1.7 0.00 0.00 0.00 54 1003.0
20260505225821 83 61 0.9 1.7 0.00 0.00 0.00 53 1003.0
20260505225318 84 32 1.7 1.7 0.00 0.00 0.00 53 1002.8
20260505224813 86 0 1.7 1.7 0.00 0.00 0.00 50 1002.5
20260505224311 87 19 1.7 2.6 0.00 0.00 0.00 47 1002.8
20260505223808 88 359 0.0 0.0 0.00 0.00 0.00 44 1002.6
20260505223305 90 7 0.9 1.7 0.00 0.00 0.00 41 1002.6
20260505222801 92 319 1.7 1.7 0.00 0.00 0.00 38 1002.3
20260505222257 93 24 0.9 0.9 0.00 0.00 0.00 37 1002.1
20260505221754 93 322 0.9 0.9 0.00 0.00 0.00 38 1002.1
20260505221251 93 334 2.6 2.6 0.00 0.00 0.00 36 1002.1
20260505220748 93 18 0.0 0.0 0.00 0.00 0.00 36 1001.9
20260505220245 95 344 0.0 0.0 0.00 0.00 0.00 34 1001.9
20260505215743 95 38 1.7 1.7 0.00 0.00 0.00 35 1001.9
20260505215241 95 338 0.9 0.9 0.00 0.00 0.00 36 1002.0
20260505214739 98 9 2.6 2.6 0.00 0.00 0.00 34 1002.1
20260505214236 98 286 0.9 1.7 0.00 0.00 0.00 37 1002.2
20260505213733 99 353 0.9 1.7 0.00 0.00 0.00 37 1001.8
20260505213230 99 307 0.0 0.9 0.00 0.00 0.00 37 1002.0
20260505212726 98 249 1.7 2.6 0.00 0.00 0.00 37 1001.9
20260505212223 96 314 0.9 0.9 0.00 0.00 0.00 40 1002.0
20260505211720 96 27 1.7 2.6 0.00 0.00 0.00 39 1002.2
20260505211218 96 264 0.9 1.7 0.00 0.00 0.00 39 1002.4
20260505210714 96 348 0.9 0.9 0.00 0.00 0.00 40 1002.4
20260505210211 97 108 3.5 3.5 0.00 0.00 0.00 38 1002.5
20260505205708 97 285 1.7 3.5 0.00 0.00 0.00 38 1002.3
20260505205206 96 331 1.7 2.6 0.00 0.00 0.00 41 1002.2
20260505204702 94 279 0.9 0.9 0.00 0.00 0.00 45 1002.6
20260505204200 94 224 2.6 2.6 0.00 0.00 0.00 44 1002.5
20260505203658 94 285 5.2 7.0 0.00 0.00 0.00 44 1002.6
20260505203154 94 208 0.9 1.7 0.00 0.00 0.00 44 1002.4
20260505202649 96 291 1.7 1.7 0.00 0.00 0.00 42 1002.6
20260505202146 95 303 1.7 1.7 0.00 0.00 0.00 43 1002.7
20260505201643 94 306 1.7 1.7 0.00 0.00 0.00 43 1003.1
20260505201141 94 151 1.7 2.6 0.00 0.00 0.00 44 1002.9
20260505200639 94 149 2.6 5.2 0.00 0.00 0.00 44 1002.8
20260505200135 94 142 0.9 1.7 0.00 0.00 0.00 46 1002.9
20260505195632 93 172 0.9 1.7 0.00 0.00 0.00 46 1002.8
20260505195129 93 169 0.9 0.9 0.00 0.00 0.00 46 1003.0
20260505194626 92 291 0.9 1.7 0.00 0.00 0.00 48 1002.8
20260505194122 92 201 1.7 2.6 0.00 0.00 0.00 47 1002.9
20260505193619 92 181 3.5 7.0 0.00 0.00 0.00 47 1003.0
20260505193116 91 46 1.7 1.7 0.00 0.00 0.00 48 1002.9
20260505192614 91 232 1.7 1.7 0.00 0.00 0.00 48 1003.0
20260505192111 91 301 0.9 1.7 0.00 0.00 0.00 49 1003.0
20260505191610 90 318 2.6 3.5 0.00 0.00 0.00 50 1002.9
20260505191107 89 303 1.7 3.5 0.00 0.00 0.00 51 1003.0
20260505190602 90 284 1.7 2.6 0.00 0.00 0.00 50 1002.7
20260505190058 90 278 0.9 0.9 0.00 0.00 0.00 51 1002.9
20260505185555 89 225 0.9 0.9 0.00 0.00 0.00 51 1002.9
20260505185051 89 319 1.7 2.6 0.00 0.00 0.00 51 1003.0
20260505184548 89 263 0.9 0.9 0.00 0.00 0.00 51 1003.0
20260505184045 89 185 0.9 2.6 0.00 0.00 0.00 51 1003.0
20260505183541 89 308 2.6 3.5 0.00 0.00 0.00 50 1003.0
20260505183039 89 184 0.9 1.7 0.00 0.00 0.00 51 1003.1
20260505182535 88 268 1.7 1.7 0.00 0.00 0.00 51 1002.9
20260505182032 88 258 0.9 1.7 0.00 0.00 0.00 53 1002.9
20260505181529 88 9 0.9 1.7 0.00 0.00 0.00 53 1002.9
20260505181026 88 189 4.3 5.2 0.00 0.00 0.00 54 1003.4
20260505180521 88 157 1.7 2.6 0.00 0.00 0.00 54 1003.0
20260505180020 88 243 1.7 3.5 0.00 0.00 0.00 54 1002.9
20260505175514 87 234 0.9 1.7 0.00 0.00 0.00 54 1003.1
20260505175012 87 289 1.7 2.6 0.00 0.00 0.00 56 1003.0
20260505174509 86 224 1.7 2.6 0.00 0.00 0.00 57 1003.0
20260505174004 86 72 3.5 5.2 0.00 0.00 0.00 56 1003.0
20260505173501 86 234 2.6 3.5 0.00 0.00 0.00 56 1003.0
20260505172958 86 274 0.9 2.6 0.00 0.00 0.00 56 1002.8
20260505172457 86 196 3.5 7.0 0.00 0.00 0.00 56 1003.2
20260505171956 86 169 3.5 5.2 0.00 0.00 0.00 57 1002.8
20260505171453 85 266 0.9 0.9 0.00 0.00 0.00 59 1003.0
20260505170949 83 268 2.6 5.2 0.00 0.00 0.00 61 1003.1
20260505170447 83 115 1.7 2.6 0.00 0.00 0.00 61 1003.1
20260505165942 83 286 0.9 1.7 0.00 0.00 0.00 61 1003.2
20260505165438 83 254 1.7 2.6 0.00 0.00 0.00 62 1003.4
20260505164933 83 147 5.2 6.1 0.00 0.00 0.00 61 1003.1
20260505164430 83 159 3.5 3.5 0.00 0.00 0.00 62 1003.1
20260505163928 83 223 2.6 2.6 0.00 0.00 0.00 63 1003.1
20260505163427 82 260 3.5 6.1 0.00 0.00 0.00 63 1003.2
20260505162926 82 209 1.7 1.7 0.00 0.00 0.00 65 1003.1
20260505162421 82 11 0.9 1.7 0.00 0.00 0.00 64 1003.1
20260505161918 81 181 2.6 3.5 0.00 0.00 0.00 65 1003.2
20260505161415 81 103 5.2 9.6 0.00 0.00 0.00 64 1003.1
20260505160912 81 160 3.5 6.1 0.00 0.00 0.00 64 1003.1
20260505160410 81 94 1.7 2.6 0.00 0.00 0.00 65 1002.7
20260505153349 82 205 3.5 5.2 0.00 0.00 0.00 63 1002.8
20260505152846 82 296 3.5 3.5 0.00 0.00 0.00 64 1002.6
20260505152344 81 183 2.6 3.5 0.00 0.00 0.00 66 1002.5
20260505151843 79 87 2.6 2.6 0.00 0.00 0.00 69 1002.6
20260505151340 78 165 2.6 3.5 0.00 0.00 0.00 70 1002.7
20260505150837 78 88 3.5 7.0 0.00 0.00 0.00 72 1002.8
20260505150334 77 192 7.0 9.6 0.00 0.00 0.00 71 1002.7
20260505140258 74 76 0.9 1.7 0.00 0.00 0.00 77 1002.8
20260505130222 72 191 2.6 5.2 0.00 0.00 0.00 82 1002.8
20260505124712 72 191 5.2 6.1 0.00 0.00 0.00 82 1002.6
20260505124209 72 192 3.5 5.2 0.00 0.00 0.00 82 1002.5
20260505123705 72 193 5.2 7.8 0.00 0.00 0.00 82 1002.4
20260505123202 72 225 1.7 2.6 0.00 0.00 0.00 82 1002.2
20260505122658 72 165 4.3 6.1 0.00 0.00 0.00 82 1002.0
20260505122155 72 328 3.5 5.2 0.00 0.00 0.00 82 1001.9
20260505121652 72 316 1.7 2.6 0.00 0.00 0.00 82 1002.0
20260505121148 72 170 3.5 5.2 0.00 0.00 0.00 82 1001.9
20260505120645 72 208 3.5 6.1 0.00 0.00 0.00 82 1002.0
20260505120141 72 143 7.8 8.7 0.00 0.00 0.00 82 1001.7
20260505115635 72 252 2.6 3.5 0.00 0.00 0.00 82 1001.8
20260505115133 72 231 3.5 5.2 0.00 0.00 0.00 82 1001.9
20260505114630 72 230 4.3 8.7 0.00 0.00 0.00 81 1001.8
20260505114126 72 149 6.1 9.6 0.00 0.00 0.00 81 1001.6
20260505113622 72 253 5.2 7.0 0.00 0.00 0.00 81 1002.0
20260505113119 72 297 1.7 2.6 0.00 0.00 0.00 81 1001.8
20260505112615 72 213 2.6 5.2 0.00 0.00 0.00 81 1001.7
20260505112114 72 228 1.7 1.7 0.00 0.00 0.00 81 1001.8
20260505111613 72 260 0.9 1.7 0.00 0.00 0.00 81 1001.7
20260505111109 72 195 1.7 1.7 0.00 0.00 0.00 81 1001.7
20260505110606 72 157 5.2 7.0 0.00 0.00 0.00 82 1001.4
20260505102039 72 138 5.2 8.7 0.00 0.00 0.00 80 1001.7
20260505101537 72 219 2.6 3.5 0.00 0.00 0.00 81 1001.7
20260505101033 72 182 7.0 7.8 0.00 0.00 0.00 81 1001.7
20260505100530 72 162 6.1 8.7 0.00 0.00 0.00 81 1001.9
20260505100027 72 229 3.5 6.1 0.00 0.00 0.00 80 1001.8
20260505095523 72 216 6.1 8.7 0.00 0.00 0.00 80 1001.6
20260505095019 72 134 2.6 7.0 0.00 0.00 0.00 80 1001.7
20260505094516 72 211 3.5 5.2 0.00 0.00 0.00 80 1001.8
20260505094012 72 348 1.7 2.6 0.00 0.00 0.00 80 1001.7
20260505093509 72 209 1.7 2.6 0.00 0.00 0.00 80 1002.0
20260505093006 72 180 2.6 3.5 0.00 0.00 0.00 80 1002.1
20260505092504 72 290 3.5 3.5 0.00 0.00 0.00 80 1002.2
20260505092001 72 177 1.7 2.6 0.00 0.00 0.00 80 1002.5
20260505091458 72 264 3.5 5.2 0.00 0.00 0.00 80 1002.3
20260505090957 72 275 1.7 2.6 0.00 0.00 0.00 80 1002.2
20260505090454 72 230 1.7 1.7 0.00 0.00 0.00 80 1002.3
20260505085951 72 280 6.1 7.8 0.00 0.00 0.00 80 1002.3
20260505085449 72 231 1.7 1.7 0.00 0.00 0.00 79 1002.4
20260505084947 72 223 4.3 7.0 0.00 0.00 0.00 79 1002.3
20260505084445 72 212 6.1 12.2 0.00 0.00 0.00 79 1002.3
20260505083943 72 211 3.5 6.1 0.00 0.00 0.00 79 1002.3
20260505083440 72 273 3.5 5.2 0.00 0.00 0.00 79 1002.1
20260505082936 73 163 0.9 1.7 0.00 0.00 0.00 78 1002.2
20260505082432 73 50 0.9 1.7 0.00 0.00 0.00 78 1002.4
20260505081929 73 190 3.5 5.2 0.00 0.00 0.00 78 1002.4
20260505081426 73 199 0.9 1.7 0.00 0.00 0.00 78 1002.4
20260505080922 73 264 0.9 0.9 0.00 0.00 0.00 77 1002.2
20260505080419 73 293 1.7 2.6 0.00 0.00 0.00 77 1002.4
20260505075914 73 205 1.7 3.5 0.00 0.00 0.00 77 1002.3
20260505075411 73 231 3.5 6.1 0.00 0.00 0.00 76 1002.5
20260505074909 73 278 4.3 8.7 0.00 0.00 0.00 76 1002.4
20260505074406 73 273 3.5 5.2 0.00 0.00 0.00 76 1002.5
20260505073903 73 183 3.5 5.2 0.00 0.00 0.00 75 1002.7
20260505073400 74 3 1.7 2.6 0.00 0.00 0.00 75 1002.8
20260505072858 74 75 3.5 5.2 0.00 0.00 0.00 75 1002.9
20260505072353 74 179 4.3 7.0 0.00 0.00 0.00 74 1003.0
20260505071850 74 169 4.3 6.1 0.00 0.00 0.00 74 1003.0
20260505071346 74 180 3.5 5.2 0.00 0.00 0.00 73 1003.1
20260505070845 74 356 2.6 3.5 0.00 0.00 0.00 73 1003.2
20260505070341 74 144 2.6 3.5 0.00 0.00 0.00 72 1002.9
20260505065836 74 191 3.5 6.1 0.00 0.00 0.00 72 1003.2
20260505065333 74 288 1.7 2.6 0.00 0.00 0.00 72 1003.4
20260505064830 74 286 3.5 5.2 0.00 0.00 0.00 72 1003.5
20260505064327 74 221 3.5 5.2 0.00 0.00 0.00 71 1003.5
20260505063825 74 330 5.2 7.8 0.00 0.00 0.00 71 1003.7
20260505063321 74 223 2.6 3.5 0.00 0.00 0.00 71 1003.5
20260505062817 74 204 5.2 7.8 0.00 0.00 0.00 70 1003.6
20260505062315 74 226 3.5 5.2 0.00 0.00 0.00 70 1003.8
20260505061812 74 250 2.6 3.5 0.00 0.00 0.00 70 1003.7
20260505061310 75 216 1.7 2.6 0.00 0.00 0.00 70 1003.8
20260505060807 75 149 2.6 3.5 0.00 0.00 0.00 69 1003.6
20260505060304 75 182 6.1 7.0 0.00 0.00 0.00 69 1003.6
20260505055759 75 54 6.1 7.8 0.00 0.00 0.00 69 1003.6
20260505055256 75 179 5.2 7.0 0.00 0.00 0.00 69 1003.7
20260505054753 75 259 5.2 7.0 0.00 0.00 0.00 68 1003.8
20260505054251 75 62 4.3 7.0 0.00 0.00 0.00 68 1003.9
20260505053749 75 203 3.5 6.1 0.00 0.00 0.00 68 1003.9
20260505053245 75 130 2.6 5.2 0.00 0.00 0.00 68 1003.7
20260505052743 75 113 2.6 2.6 0.00 0.00 0.00 68 1003.8
20260505052239 75 215 4.3 7.0 0.00 0.00 0.00 67 1003.8
20260505051736 75 137 3.5 5.2 0.00 0.00 0.00 67 1004.0
20260505051234 75 162 3.5 3.5 0.00 0.00 0.00 67 1004.0
20260505050732 75 86 3.5 6.1 0.00 0.00 0.00 67 1003.9
20260505050230 75 194 5.2 8.7 0.00 0.00 0.00 67 1004.0
20260505041700 76 220 3.5 3.5 0.00 0.00 0.00 66 1003.9
20260505041157 76 249 5.2 13.0 0.00 0.00 0.00 65 1004.1
20260505040654 76 278 5.2 7.8 0.00 0.00 0.00 65 1004.3
20260505040151 76 212 2.6 3.5 0.00 0.00 0.00 65 1004.1
20260505035648 76 297 3.5 6.1 0.00 0.00 0.00 65 1004.2
20260505035144 76 169 3.5 5.2 0.00 0.00 0.00 65 1004.2
20260505034640 76 241 7.0 9.6 0.00 0.00 0.00 65 1004.3
20260505034138 76 199 5.2 8.7 0.00 0.00 0.00 65 1004.2
20260505033634 76 187 5.2 7.8 0.00 0.00 0.00 65 1004.1
20260505033133 76 117 7.0 11.3 0.00 0.00 0.00 64 1004.0
20260505032630 76 165 2.6 3.5 0.00 0.00 0.00 64 1004.2
20260505032126 76 65 2.6 3.5 0.00 0.00 0.00 64 1004.3
20260505031624 76 187 2.6 6.1 0.00 0.00 0.00 64 1004.1
20260505031120 76 213 4.3 7.0 0.00 0.00 0.00 64 1004.2
20260505030617 76 203 3.5 5.2 0.00 0.00 0.00 63 1004.2
20260505030113 77 259 3.5 5.2 0.00 0.00 0.00 63 1004.1
20260505025609 77 223 4.3 7.0 0.00 0.00 0.00 63 1004.2
20260505025108 77 155 0.9 6.1 0.00 0.00 0.00 63 1004.5